Location: Aalen
(48.8330°N, 10.1000°E)
Time: 20:39:56
(UTC+02:00)

S-56A Canister/Altair - Pass Details

Date: 05 August 2021
Orbit: 632 x 2500 km, 38.9° (Epoch: 19 September)

Event Time Altitude Azimuth Distance (km) Brightness Sun altitude
Rises 12:53:51 0° 191° (S) 4,772 12.0 57.4°
Reaches altitude 10° 12:57:46 10° 176° (S) 4,095 11.9 57.5°
Maximum altitude 13:05:29 21° 133° (SE) 3,752 11.8 57.7°
Drops below altitude 10° 13:14:41 10° 92° (E) 5,011 11.9 57.9°
Sets 13:20:11 0° 79° (E) 6,150 12.1 58.0°
